WB6TTB Weather Reports


Display with metric or nautical units.
time (UTC)temp
F
wind
direction
speed
MPH
gust
MPH
rain 1hr
in
rain 24hr
in
rain mn
in
humidity
%
barometer
mb
20260507073603 52 0 0.0 0.0 0.00 0.00 0.00 96 1018.3
20260507061203 53 0 0.0 0.0 0.00 0.00 0.00 94 1018.1
20260507053603 54 0 0.0 0.0 0.00 0.00 0.00 93 1018.0
20260507043004 56 0 0.0 0.0 0.00 0.00 0.00 90 1017.9
20260507030603 59 0 0.0 0.0 0.00 0.00 0.00 87 1017.4
20260507014203 63 0 0.0 0.0 0.00 0.00 0.00 80 1017.2
20260507010003 67 0 0.0 0.0 0.00 0.00 0.00 76 1017.3
20260507002403 67 0 0.0 0.0 0.00 0.00 0.00 77 1017.3
20260507000604 66 0 0.0 0.0 0.00 0.00 0.00 78 1017.4
20260507000004 67 0 0.0 0.0 0.00 0.00 0.00 78 1017.3
20260506234204 65 0 0.0 0.0 0.00 0.00 0.00 79 1017.7
20260506214204 67 0 0.0 0.0 0.00 0.00 0.00 76 1018.7
20260506211204 67 0 0.0 0.0 0.00 0.00 0.00 77 1018.8
20260506210604 67 0 0.0 0.0 0.00 0.00 0.00 76 1018.9
20260506204803 67 0 0.0 0.0 0.00 0.00 0.00 76 1019.0
20260506201803 66 0 0.0 0.0 0.00 0.00 0.00 76 1019.2
20260506193604 66 0 0.0 0.0 0.00 0.00 0.00 77 1019.5
20260506193004 65 0 0.0 0.0 0.00 0.00 0.00 77 1019.6
20260506171804 59 0 0.0 0.0 0.00 0.00 0.00 86 1020.1
20260506170604 58 0 0.0 0.0 0.00 0.00 0.00 87 1020.1
20260506163603 56 0 0.0 0.0 0.00 0.00 0.00 89 1020.0
20260506161803 57 0 0.0 0.0 0.00 0.00 0.00 88 1020.0
20260506161203 57 0 0.0 0.0 0.00 0.00 0.00 88 1020.0
20260506154203 57 0 0.0 0.0 0.00 0.00 0.00 89 1020.0
20260506152403 56 0 0.0 0.0 0.00 0.00 0.00 90 1019.8
20260506144204 54 0 0.0 0.0 0.00 0.00 0.00 93 1019.7
20260506143004 53 0 0.0 0.0 0.00 0.00 0.00 93 1019.5
20260506141804 53 0 0.0 0.0 0.00 0.00 0.00 93 1019.5
20260506133603 53 0 0.0 0.0 0.00 0.00 0.00 92 1019.1
20260506123604 53 0 0.0 0.0 0.00 0.00 0.00 91 1018.9
20260506122404 53 0 0.0 0.0 0.00 0.00 0.00 90 1018.8
20260506110603 53 0 0.0 0.0 0.00 0.00 0.00 91 1018.3
20260506104203 53 0 0.0 0.0 0.00 0.00 0.00 91 1018.2
20260506101204 53 0 0.0 0.0 0.00 0.00 0.00 90 1018.1
20260506093004 53 0 0.0 0.0 0.00 0.00 0.00 90 1018.2
20260506084803 53 0 0.0 0.0 0.00 0.01 0.00 90 1018.0